sat.trackr.live / text

‹ back to catalog

RADFXSAT (FOX-1B)

NORAD 43017 · 2017-073E

PAYLOAD ACTIVE UNKNOWN

§ Identity

Operator
Country
US
Launch date
2017-11-18
Launch site
AFWTR
Launch vehicle
Mass (kg)
RCS (m²)

Purposes: comms

External: N2YO · Heavens-Above · Gunter

§ Orbital elements

Epoch: 2026-05-25T02:51:56.803680Z

Period
95.22 min
Inclination
97.4741°
Eccentricity
0.0153085
Mean motion
15.12237586 rev/d
Perigee alt
423.6 km
Apogee alt
635.1 km
Semi-major
6,907.5 km
B*
4.5768e-4
RAAN
12.8110°
Arg perigee
48.7405°
Mean anomaly
312.6896°
Rev number
46,190

§ Raw data

RADFXSAT (FOX-1B)1 43017U 17073E   26145.11940745  .00010474  00000+0  45768-3 0  99902 43017  97.4741  12.8110 0153085  48.7405 312.6896 15.12237586461907

JSON: /api/v1/satellites/43017 · /tle

For live sub-satellite position, see the globe view (requires WebGL).

§ Visibility from observer

Set your observer location to see the next 7 days of passes ≥ 10°. The values pass through the URL so the page stays shareable.

No JS? Fill the form by hand. The geolocation button needs JavaScript.

§ Radio — SatNOGS DB

ModeDescriptionDownlinkUplink
DUV DUV TLM 145.960 MHz
FM Mode U/V FM Voice CTCSS 67.0Hz 145.960 MHz 435.250 MHz

2 transmitters · refreshed weekly from db.satnogs.org